#timestamp,LO_Frequency,Hit 
1501912815.3,286047004.4,N
1501912835.1,286047001.3,N
1501912855.9,286047004.1,N
1501912875.7,286047005.8,N
1501912895.5,286047004.3,N
1501912915.4,286047001.4,N
1501912935.2,286047002.2,N
1501912955.0,286047003.7,N
1501912955.9,286047003.7,N
1501912975.8,286047004.0,N
1501912995.6,286047003.8,N
1501913015.4,286047003.7,N
1501913035.2,286047001.3,N
1501913055.1,286047005.6,N
1501913056.0,286047005.6,N
1501913075.8,286047007.6,N
1501913095.6,286047004.5,N
1501913115.5,286047005.0,N
1501913135.3,286047004.5,N
1501913155.1,286047004.5,N
1501913175.9,286047004.6,N
1501913195.7,286047007.5,N
1501913215.5,286047008.7,N
1501913235.4,286047010.1,N
1501913255.2,286047008.4,N
1501913275.0,286047004.7,N
1501913275.9,286047004.7,N
1501913295.8,286047004.5,N
1501913315.6,286047007.9,N
1501913335.4,286047007.9,N
1501913355.3,286047008.6,N
1501913375.1,286047010.8,N
1501913376.0,286047010.8,N
1501913395.8,286047009.0,N
1501913415.6,286047010.7,N
1501913435.5,286047012.1,N
1501913455.3,286047010.8,N
1501913475.1,286047008.1,N
1501913495.9,286047007.7,N
1501913515.7,286047010.5,N
1501913535.5,286047007.9,N
1501913555.4,286047009.6,N
1501913575.2,286047011.4,N
1501913595.3,286047012.3,N
1501913615.1,286047012.1,N
1501913635.9,286047011.2,N
1501913655.7,286047011.3,N
1501913675.5,286047013.7,N
1501913695.4,286047015.2,N
1501913715.2,286047014.5,N
1501913735.0,286047015.0,N
1501913735.9,286047015.0,N
1501913755.8,286047014.9,N
1501913775.6,286047014.9,N
1501913795.4,286047015.5,N
1501913815.3,286047012.5,N
1501913835.1,286047018.8,N
1501913836.0,286047018.8,N
1501913855.8,286047019.1,N
1501913875.6,286047021.1,N
1501913895.5,286047022.7,N
1501913915.3,286047025.2,N
1501913935.1,286047022.8,N
1501913955.9,286047023.2,N
1501913975.7,286047023.1,N
1501913995.5,286047019.5,N
1501914015.4,286047022.0,N
1501914035.2,286047023.4,N
1501914055.0,286047022.1,N
1501914055.9,286047022.1,N
1501914075.8,286047025.1,N
1501914095.6,286047028.4,N
1501914115.4,286047025.3,N
1501914135.2,286047027.1,N
1501914155.1,286047028.0,N
1501914156.0,286047028.0,N
1501914175.8,286047027.9,N
1501914195.6,286047025.4,N
1501914215.5,286047028.3,N
1501914235.3,286047028.0,N
1501914255.1,286047025.4,N
1501914275.9,286047027.8,N
1501914295.7,286047025.7,N
1501914315.5,286047027.2,N
1501914335.4,286047028.3,N
1501914355.2,286047025.7,N
1501914375.0,286047027.9,N
1501914375.9,286047027.9,N
1501914395.7,286047027.8,N
1501914415.6,286047028.4,N
1501914435.4,286047025.6,N
1501914455.2,286047024.3,N
1501914475.1,286047021.9,N
1501914476.0,286047021.9,N
1501914495.8,286047022.0,N
1501914515.6,286047017.4,N
1501914535.5,286047019.5,N
1501914555.3,286047016.3,N
1501914575.1,286047018.5,N
1501914595.9,286047015.1,N
1501914615.7,286047010.9,N
1501914635.5,286047013.2,N
1501914655.4,286047015.2,N
1501914675.2,286047015.3,N
1501914695.0,286047014.3,N
1501914695.9,286047014.3,N
1501914715.8,286047014.4,N
1501914735.6,286047013.0,N
1501914755.4,286047014.9,N
1501914775.2,286047014.8,N
1501914795.1,286047012.8,N
1501914796.0,286047012.8,N
1501914815.8,286047012.8,N
1501914835.6,286047015.1,N
1501914855.5,286047012.8,N
1501914875.3,286047015.6,N
1501914895.1,286047011.9,N
1501914915.9,286047009.8,N
1501914935.7,286047008.7,N
1501914955.5,286047010.4,N
1501914975.4,286047011.9,N
1501914995.2,286047011.7,N
1501915015.0,286047009.3,N
1501915015.9,286047009.3,N
1501915035.8,286047009.8,N
1501915055.6,286047009.7,N
1501915075.4,286047012.0,N
1501915095.2,286047010.2,N
1501915115.1,286047010.0,N
1501915116.0,286047010.0,N
1501915135.8,286047010.1,N
1501915155.6,286047010.4,N
1501915175.5,286047010.2,N
1501915195.3,286047010.2,N
1501915215.1,286047010.4,N
1501915235.9,286047009.9,N
1501915255.7,286047010.3,N
1501915275.5,286047012.2,N
1501915295.4,286047011.3,N
1501915315.2,286047009.3,N
1501915335.0,286047009.5,N
1501915335.9,286047009.5,N
1501915355.7,286047011.5,N
1501915375.6,286047013.4,N
1501915395.4,286047011.2,N
1501915415.2,286047010.9,N
1501915435.1,286047011.5,N
1501915436.0,286047011.5,N
1501915455.8,286047011.0,N
1501915475.6,286047011.7,N
1501915495.5,286047010.7,N
1501915515.3,286047008.4,N
1501915535.1,286047008.5,N
1501915555.9,286047009.2,N
1501915575.7,286047008.4,N
1501915595.5,286047007.8,N
1501915615.4,286047008.6,N
1501915635.2,286047008.8,N
1501915655.0,286047010.3,N
1501915655.9,286047010.3,N
1501915675.7,286047010.3,N
1501915695.6,286047009.4,N
1501915715.4,286047009.8,N
1501915735.2,286047007.7,N
1501915755.1,286047008.9,N
1501915756.0,286047008.9,N
1501915775.8,286047010.1,N
1501915795.6,286047009.9,N
1501915815.5,286047008.3,N
1501915835.3,286047008.5,N
1501915855.1,286047007.5,N
1501915875.9,286047007.3,N
1501915895.7,286047009.2,N
1501915915.5,286047005.1,N
1501915935.3,286047003.3,N
1501915955.2,286047002.9,N
1501915975.0,286047004.6,N
1501915975.9,286047004.6,N
1501915995.7,286047004.6,N
1501916015.6,286047005.8,N
1501916035.4,286047005.6,N
1501916055.2,286047003.6,N
1501916075.1,286047004.0,N
1501916076.0,286047004.0,N
1501916095.8,286047004.3,N
1501916115.6,286047002.3,N
1501916135.5,286047000.1,N
1501916155.3,286047002.2,N
1501916175.1,286047000.1,N
1501916195.8,286047000.2,N
1501916215.7,286047001.4,N
1501916235.5,286047000.8,N
1501916255.3,286047002.7,N
1501916275.2,286047001.1,N
1501916295.9,286047000.3,N
1501916315.7,286047000.2,N
1501916335.6,286047002.1,N
1501916355.4,286046999.8,N
1501916375.2,286047000.9,N
1501916395.1,286047000.4,N
1501916396.0,286047000.4,N
